Location: Falniów
(50.3639°N, 19.9642°E)
Time: 20:54:24
(UTC+00:00)

Cosmos 1805 Rocket - Pass Details

Date: 18 January 2026
Orbit: 598 x 623 km, 82.5° (Epoch: 17 February)

Event Time Altitude Azimuth Distance (km) Brightness Sun altitude
Rises 03:33:20 0° 174° (S) 2,892 7.1 -27.9°
Reaches altitude 10° 03:35:36 10° 170° (S) 1,989 6.2 -27.5°
Maximum altitude 03:39:52 51° 95° (E) 783 4.3 -26.8°
Drops below altitude 10° 03:44:10 10° 19° (NNE) 1,996 6.3 -26.2°
Sets 03:46:26 0° 15° (NNE) 2,903 7.2 -25.8°
